| time (UTC) | temp F | wind direction | speed MPH | gust MPH | rain 1hr in | rain 24hr in | rain mn in | humidity % | barometer mb |
| 20260503191549 | 54 | 69 | 0.0 | 0.0 | 0.00 | 0.00 | 0.00 | 91 | 1027.7 |
| 20260503190049 | 54 | 69 | 0.0 | 0.0 | 0.00 | 0.00 | 0.00 | 91 | 1027.8 |
| 20260503184549 | 54 | 69 | 0.0 | 0.0 | 0.00 | 0.00 | 0.00 | 91 | 1027.8 |
| 20260503183048 | 54 | 69 | 0.0 | 2.0 | 0.00 | 0.00 | 0.00 | 91 | 1027.8 |
| 20260503181559 | 54 | 67 | 0.0 | 4.0 | 0.00 | 0.00 | 0.00 | 91 | 1027.8 |
| 20260503180046 | 54 | 68 | 0.0 | 2.0 | 0.00 | 0.00 | 0.00 | 91 | 1027.7 |
| 20260503174544 | 54 | 68 | 0.0 | 4.0 | 0.00 | 0.00 | 0.00 | 91 | 1027.7 |
| 20260503173054 | 54 | 207 | 0.0 | 2.0 | 0.00 | 0.00 | 0.00 | 92 | 1027.7 |
| 20260503171542 | 54 | 207 | 0.0 | 2.0 | 0.00 | 0.00 | 0.00 | 92 | 1027.6 |
| 20260503130130 | 59 | 230 | 0.0 | 2.0 | 0.00 | 0.00 | 0.00 | 84 | 1027.3 |
| 20260503081522 | 66 | 188 | 0.0 | 2.0 | 0.00 | 0.00 | 0.00 | 66 | 1025.5 |
| 20260503071514 | 66 | 223 | 1.0 | 3.0 | 0.00 | 0.00 | 0.00 | 66 | 1025.3 |
| 20260503054509 | 66 | 217 | 1.0 | 5.0 | 0.00 | 0.00 | 0.00 | 67 | 1025.5 |
| 20260503053008 | 67 | 211 | 1.0 | 4.0 | 0.00 | 0.00 | 0.00 | 67 | 1025.7 |
| 20260503051504 | 67 | 47 | 1.0 | 4.0 | 0.00 | 0.00 | 0.00 | 64 | 1025.9 |
| 20260503050002 | 65 | 219 | 0.0 | 3.0 | 0.00 | 0.00 | 0.00 | 69 | 1025.9 |
| 20260503044609 | 64 | 218 | 2.0 | 4.0 | 0.00 | 0.00 | 0.00 | 75 | 1026.1 |
| 20260503043110 | 63 | 203 | 2.0 | 8.0 | 0.00 | 0.00 | 0.00 | 74 | 1026.2 |
| 20260503041558 | 65 | 53 | 1.0 | 4.0 | 0.00 | 0.00 | 0.00 | 69 | 1026.4 |
| 20260503040057 | 64 | 74 | 1.0 | 3.0 | 0.00 | 0.00 | 0.00 | 70 | 1026.7 |
| 20260503034553 | 64 | 94 | 1.0 | 3.0 | 0.00 | 0.00 | 0.00 | 72 | 1026.9 |
| 20260503033104 | 64 | 59 | 0.0 | 5.0 | 0.00 | 0.00 | 0.00 | 74 | 1027.1 |
| 20260503031546 | 62 | 119 | 1.0 | 4.0 | 0.00 | 0.00 | 0.00 | 78 | 1027.2 |
| 20260503030045 | 61 | 228 | 1.0 | 7.0 | 0.00 | 0.00 | 0.00 | 79 | 1027.3 |
| 20260503024543 | 60 | 348 | 1.0 | 3.0 | 0.00 | 0.00 | 0.00 | 81 | 1027.4 |
| 20260503023049 | 60 | 89 | 1.0 | 4.0 | 0.00 | 0.00 | 0.00 | 82 | 1027.4 |
| 20260503021535 | 59 | 50 | 1.0 | 3.0 | 0.00 | 0.00 | 0.00 | 84 | 1027.5 |
| 20260503020033 | 58 | 184 | 1.0 | 2.0 | 0.00 | 0.00 | 0.00 | 85 | 1027.5 |
| 20260503014530 | 57 | 188 | 0.0 | 3.0 | 0.00 | 0.00 | 0.00 | 87 | 1027.5 |
| 20260503013029 | 57 | 130 | 0.0 | 2.0 | 0.00 | 0.00 | 0.00 | 88 | 1027.6 |
| 20260503011526 | 57 | 219 | 1.0 | 3.0 | 0.00 | 0.00 | 0.00 | 89 | 1027.6 |
| 20260503010030 | 56 | 189 | 0.0 | 2.0 | 0.00 | 0.00 | 0.00 | 92 | 1027.5 |
| 20260503004521 | 55 | 190 | 0.0 | 3.0 | 0.00 | 0.00 | 0.00 | 92 | 1027.5 |
| 20260503003018 | 55 | 197 | 0.0 | 0.0 | 0.00 | 0.00 | 0.00 | 93 | 1027.4 |
| 20260503001518 | 54 | 197 | 0.0 | 2.0 | 0.00 | 0.00 | 0.00 | 93 | 1027.3 |
| 20260503000022 | 54 | 199 | 0.0 | 2.0 | 0.00 | 0.00 | 0.00 | 93 | 1027.1 |
| 20260502234513 | 54 | 194 | 0.0 | 3.0 | 0.00 | 0.00 | 0.00 | 93 | 1027.0 |
| 20260502233010 | 54 | 194 | 0.0 | 2.0 | 0.00 | 0.00 | 0.00 | 93 | 1026.6 |
| 20260502231511 | 54 | 194 | 1.0 | 2.0 | 0.00 | 0.00 | 0.00 | 93 | 1026.5 |
| 20260502230006 | 54 | 194 | 0.0 | 0.0 | 0.00 | 0.00 | 0.00 | 94 | 1026.3 |
| 20260502224505 | 53 | 194 | 0.0 | 2.0 | 0.00 | 0.00 | 0.00 | 93 | 1026.2 |
| 20260502223006 | 53 | 192 | 0.0 | 1.0 | 0.00 | 0.00 | 0.00 | 93 | 1026.1 |
| 20260502221505 | 53 | 192 | 0.0 | 1.0 | 0.00 | 0.00 | 0.00 | 93 | 1026.1 |
| 20260502220003 | 53 | 192 | 0.0 | 2.0 | 0.00 | 0.00 | 0.00 | 94 | 1026.1 |
| 20260502214501 | 53 | 190 | 0.0 | 1.0 | 0.00 | 0.00 | 0.00 | 94 | 1026.0 |
| 20260502213002 | 53 | 190 | 0.0 | 0.0 | 0.00 | 0.00 | 0.00 | 94 | 1026.0 |
| 20260502211602 | 53 | 190 | 0.0 | 1.0 | 0.00 | 0.00 | 0.00 | 94 | 1025.7 |
| 20260502210057 | 53 | 190 | 0.0 | 1.0 | 0.00 | 0.00 | 0.00 | 94 | 1025.5 |
| 20260502204610 | 53 | 190 | 0.0 | 1.0 | 0.00 | 0.00 | 0.00 | 94 | 1025.4 |
| 20260502203056 | 53 | 190 | 0.0 | 3.0 | 0.00 | 0.00 | 0.00 | 94 | 1025.3 |
| 20260502201554 | 53 | 81 | 0.0 | 0.0 | 0.00 | 0.00 | 0.00 | 94 | 1025.3 |
| 20260502200056 | 52 | 81 | 0.0 | 1.0 | 0.00 | 0.00 | 0.00 | 94 | 1025.2 |
| 20260502194551 | 52 | 81 | 0.0 | 2.0 | 0.00 | 0.00 | 0.00 | 94 | 1025.1 |
| 20260502193049 | 52 | 81 | 0.0 | 0.0 | 0.00 | 0.00 | 0.00 | 94 | 1025.2 |